Theta_e
333 333 331 330 330 330 329 329 329 329 328 328 328 327 325 323 322 322 323 323 322 320 316 313 312 310 309 308 307 306 305 304 303 303 302 302 302 302 301 301 301 301 300 300 300 299 299 299 299 299 299 298 297 297 297 297 296 296 296 296 296 296 296
332 332 331 330 330 329 328 328 328 328 328 327 326 324 322 320 321 322 322 320 318 314 312 310 308 307 307 306 304 303 302 302 301 301 301 301 301 300 300 300 300 300 299 299 299 299 299 299 299 299 299 298 297 296 296 296 296 296 296 296 296 296 296
332 332 332 331 331 329 328 328 327 327 327 325 323 321 320 320 320 320 318 316 313 310 308 307 306 305 304 303 302 301 301 301 301 301 300 300 300 300 300 299 299 299 299 299 299 299 298 298 298 298 298 298 298 297 296 295 295 295 295 295 296 295 295
332 332 332 331 331 330 328 327 326 325 324 322 321 320 319 319 318 316 314 311 309 307 305 304 303 302 301 301 301 301 300 300 300 300 300 300 300 300 300 300 300 299 299 299 298 298 297 297 297 297 297 297 297 297 296 296 296 296 295 295 295 295 295
332 332 331 331 329 328 327 326 325 324 322 321 320 319 318 317 315 312 309 307 306 304 303 302 301 300 300 300 300 300 300 300 300 299 300 300 299 299 300 299 299 298 298 298 297 296 296 296 296 296 296 297 297 296 296 296 296 295 295 295 295 295 295
331 331 330 329 328 327 326 325 324 322 320 320 319 318 315 313 310 307 305 304 303 302 301 300 300 299 299 299 299 299 300 299 299 299 299 299 299 299 299 298 297 297 297 296 296 296 296 295 295 295 295 296 296 296 296 296 296 296 295 295 295 295 295
330 329 329 329 328 327 326 324 322 320 319 319 317 315 311 308 305 304 302 301 301 300 300 299 299 299 299 299 299 299 299 299 299 298 299 298 298 298 297 297 297 296 296 296 295 295 295 295 295 295 295 295 295 296 296 296 295 295 295 295 295 295 295
329 330 330 329 328 326 324 321 320 319 318 317 314 310 306 303 302 301 300 300 299 299 299 299 299 299 298 299 299 299 299 299 298 298 298 297 297 297 296 296 296 296 295 295 295 295 294 294 294 294 294 295 295 295 296 296 296 295 295 295 295 295 295
331 331 330 329 327 324 321 319 319 317 316 314 311 305 302 301 300 300 300 299 299 298 298 298 298 298 298 298 298 298 298 298 297 297 297 297 296 296 296 295 295 295 295 294 294 294 294 294 294 294 294 294 294 294 295 295 295 295 295 294 295 295 294
331 330 329 327 325 322 320 319 318 316 314 312 307 301 300 300 299 299 299 299 298 298 298 298 298 298 298 298 298 298 298 297 297 297 297 296 296 295 295 295 295 295 294 294 294 294 294 294 294 293 293 293 293 293 293 294 294 294 295 294 294 294 294
330 328 326 324 322 321 319 318 316 314 313 309 303 299 299 299 298 299 299 298 298 297 298 297 297 297 297 297 297 297 297 297 297 297 296 296 296 295 295 295 294 294 294 294 294 294 293 294 293 293 293 293 293 293 293 293 293 294 294 294 294 294 294
328 326 324 322 320 319 317 316 315 313 311 306 300 298 298 298 298 299 298 298 297 297 297 297 297 297 297 297 297 297 297 297 297 297 296 296 295 295 294 294 294 294 294 294 293 293 293 293 293 293 293 293 293 293 293 293 293 294 293 293 293 293 293
326 324 322 320 318 317 316 315 313 311 308 303 298 297 298 298 298 298 297 297 296 296 297 296 297 297 296 297 297 297 297 296 296 296 296 295 295 294 294 294 294 294 294 293 293 293 293 293 293 293 293 293 293 293 293 293 293 293 293 293 293 293 293
324 322 320 318 317 316 315 314 312 309 305 300 297 297 297 297 297 297 296 296 296 296 296 296 296 297 296 297 296 296 296 296 296 296 296 295 295 294 294 294 294 294 293 293 293 293 293 293 293 292 293 293 293 293 293 293 293 293 293 293 293 293 293
322 320 319 317 316 315 314 313 311 307 302 299 297 297 296 296 296 296 296 296 296 296 296 296 296 296 296 296 296 297 296 296 296 296 295 295 294 294 294 294 294 294 293 293 293 293 293 293 292 292 293 292 292 293 293 293 293 292 293 293 293 293 293
320 319 317 316 316 315 313 312 310 305 300 298 297 296 296 296 296 295 296 295 295 296 296 296 296 296 296 296 296 296 296 296 296 296 296 295 295 294 294 294 294 294 293 293 293 293 292 292 292 292 292 292 292 292 292 292 293 292 292 292 292 292 292
319 317 316 315 315 314 312 311 308 302 298 298 297 296 296 296 295 295 295 295 295 295 295 296 296 295 296 296 296 296 295 295 296 296 295 295 295 295 295 294 294 294 293 293 293 292 292 292 292 292 292 292 292 292 292 292 292 292 292 291 292 292 292
318 316 315 314 313 312 311 310 305 300 298 298 297 296 296 295 295 295 295 295 295 295 295 295 295 295 296 296 296 296 295 296 296 296 295 295 295 295 295 294 294 294 293 293 293 292 292 292 292 292 292 292 292 292 292 292 292 291 291 291 291 292 291
317 316 314 313 312 310 310 308 302 298 298 298 297 296 295 295 295 295 295 295 295 295 295 295 295 295 295 296 296 295 296 296 296 295 295 295 295 295 295 294 294 294 293 292 292 292 292 292 292 292 292 292 292 292 291 291 291 291 290 290 291 291 291
316 315 313 311 310 309 309 305 300 298 298 298 297 295 295 295 295 295 295 295 294 295 295 295 295 295 295 295 295 295 296 295 295 295 295 295 295 295 295 294 294 294 293 292 292 292 292 292 292 292 292 292 292 291 291 291 291 290 290 290 290 290 291
314 313 311 310 309 308 306 302 299 299 298 298 297 295 294 295 295 295 295 295 295 295 295 294 295 295 295 295 295 295 295 295 295 294 294 295 295 295 294 294 294 294 293 292 292 292 292 292 292 292 292 292 292 291 291 291 290 290 289 290 290 290 291
312 311 310 309 309 307 304 300 299 299 298 297 296 295 294 295 294 295 295 294 295 294 294 294 294 295 295 295 295 295 295 295 295 295 294 294 294 294 294 293 294 293 293 292 292 292 292 292 292 292 291 291 291 291 290 290 290 289 289 290 290 291 291
311 310 310 309 308 305 302 299 299 299 298 297 296 294 294 295 294 294 294 294 294 294 294 294 294 294 295 295 295 295 294 294 294 295 294 294 294 294 293 293 293 293 292 292 292 293 293 292 292 291 291 291 291 290 290 290 290 289 289 289 290 291 292
311 310 310 309 306 303 301 299 299 299 298 296 295 294 294 294 294 294 294 294 294 294 294 294 294 294 294 294 294 294 294 294 294 294 294 294 294 293 293 293 293 293 292 292 292 293 293 292 291 291 291 291 291 291 290 290 290 289 289 290 290 292 292
311 311 310 309 306 303 301 299 299 299 297 296 295 294 294 294 294 294 294 294 294 294 294 294 294 294 294 294 294 294 293 293 293 294 294 294 294 294 293 293 293 292 292 292 293 293 292 292 291 291 291 291 291 291 291 290 290 289 289 290 291 292 293
312 311 310 309 306 303 301 299 298 298 297 296 295 294 294 294 294 294 294 294 294 294 294 294 294 294 294 294 294 294 293 293 293 293 293 294 294 293 293 293 292 292 292 292 293 293 292 291 291 291 291 291 291 291 291 291 290 290 290 291 291 292 293
311 310 309 308 307 304 300 298 298 298 297 296 294 294 294 294 294 294 294 294 294 294 294 294 294 294 294 294 293 293 293 293 292 292 293 293 293 293 293 293 292 292 292 293 293 293 292 291 291 290 290 291 291 291 291 291 291 290 290 291 292 292 293
310 310 309 308 307 304 300 299 298 297 296 295 294 294 294 294 294 294 294 294 294 294 294 294 293 293 293 293 293 293 293 293 293 292 292 292 293 293 293 292 292 292 293 293 293 293 292 292 291 290 290 290 290 291 291 291 291 290 290 290 291 292 293
310 310 309 308 306 303 300 300 299 297 296 295 294 293 293 294 293 294 294 294 293 293 293 293 293 293 293 293 293 293 293 293 293 292 292 292 292 292 292 292 292 293 293 293 293 293 293 292 291 290 290 291 290 290 291 291 291 291 290 290 291 292 293
310 310 309 307 304 302 300 300 299 298 296 295 294 293 293 293 293 293 293 293 293 293 293 293 293 293 293 293 293 293 293 293 293 292 292 292 292 292 292 292 292 293 293 293 293 293 293 292 291 290 290 291 291 290 290 291 291 291 291 290 290 291 292
310 310 308 305 303 302 301 300 299 298 297 296 294 293 293 293 293 293 293 293 293 293 293 293 293 293 294 294 293 293 293 293 293 293 292 292 292 292 292 292 292 292 292 293 293 293 293 292 291 290 290 290 290 290 290 290 291 291 291 291 290 290 291
310 309 306 304 303 301 301 300 299 298 298 296 294 293 293 293 293 293 293 293 293 293 293 293 293 293 294 294 294 294 293 293 293 293 293 292 292 292 292 292 292 292 292 293 293 293 292 292 291 290 290 290 290 290 290 290 290 291 291 291 290 290 291
310 307 304 303 302 301 300 300 300 299 298 297 294 293 293 293 293 293 293 293 293 292 292 293 293 294 294 294 294 294 293 294 293 293 292 292 292 292 292 292 292 292 293 293 293 293 292 291 291 290 290 290 290 290 290 290 290 290 291 291 290 290 290
309 306 304 303 303 302 301 300 300 298 298 297 295 293 292 293 293 293 293 293 293 293 293 293 293 293 293 293 294 293 293 294 293 293 292 292 292 292 292 292 292 293 293 293 293 293 292 291 291 291 290 290 290 290 290 290 290 290 291 291 291 290 290
307 305 304 304 303 302 302 301 300 298 297 297 296 294 293 293 293 293 293 293 293 293 293 293 293 293 293 293 294 293 294 294 293 292 292 292 292 293 293 293 293 293 293 294 293 293 292 292 292 292 291 291 290 290 290 290 290 290 291 291 291 290 290
306 305 304 304 302 302 302 301 299 298 297 296 296 295 293 292 293 293 294 294 294 294 294 294 294 293 293 293 294 293 294 293 293 293 293 293 293 293 293 293 293 293 294 294 294 293 293 292 292 292 292 292 291 291 291 291 291 291 291 290 291 290 290
304 304 303 303 302 302 301 299 298 298 297 296 296 295 293 292 293 294 295 295 295 295 294 294 294 293 293 293 294 294 294 293 293 293 293 293 293 293 293 293 293 294 294 294 294 294 293 293 292 292 292 292 292 291 291 291 291 291 291 291 290 290 290
Wind_Speed
14 14 14 14 13 13 13 13 14 16 17 17 17 17 17 17 15 14 13 11 10 9 7 6 6 7 7 8 9 10 11 11 11 12 12 11 10 11 11 12 12 13 13 13 13 14 14 14 14 15 16 18 18 19 20 22 22 22 23 23 24 24 24
14 14 14 13 13 13 14 15 16 17 18 18 17 16 15 14 12 11 10 8 7 6 5 5 5 7 8 9 9 10 10 11 11 11 11 10 10 11 11 11 11 11 11 11 11 12 14 14 16 18 20 20 20 22 22 22 23 22 23 23 24 25 25
14 15 15 14 14 14 15 16 17 18 18 17 16 15 13 12 11 9 7 5 4 3 3 5 6 7 8 9 9 10 10 10 10 11 10 11 11 11 10 10 9 9 9 10 11 13 15 15 16 19 21 22 22 23 24 25 24 23 23 23 23 24 24
15 15 15 15 15 15 15 16 16 17 16 15 14 14 12 11 9 6 3 2 2 3 4 5 6 7 8 9 10 10 10 10 11 12 12 11 11 11 10 9 10 11 11 12 14 15 16 16 17 19 20 20 21 22 23 24 23 23 22 23 24 25 25
14 14 14 14 15 15 15 16 16 14 13 13 13 13 11 8 5 2 1 2 2 3 4 5 6 8 9 9 10 10 10 11 12 12 12 12 12 12 11 11 12 13 13 14 15 16 16 17 18 19 20 21 22 22 23 23 23 23 23 24 25 26 27
14 14 14 14 15 15 15 15 14 12 12 13 13 11 8 5 1 1 2 2 2 3 4 6 7 8 9 9 9 10 10 11 12 12 12 12 13 13 13 13 13 14 15 15 16 17 18 18 18 19 21 22 23 23 23 23 23 23 22 24 26 27 28
15 14 14 14 15 15 14 13 12 12 13 13 12 8 4 1 2 2 2 2 2 4 5 6 7 7 8 8 9 9 10 11 11 11 12 12 13 13 13 13 14 15 16 17 17 18 18 19 20 22 23 23 23 22 22 22 22 23 25 26 26 29 31
14 13 13 14 14 13 12 11 11 13 14 12 8 4 2 2 2 2 2 2 2 3 5 5 6 7 8 8 9 9 10 11 11 11 11 11 12 12 13 13 14 15 16 17 17 18 19 20 22 23 24 24 24 24 23 23 22 24 28 30 29 29 33
14 15 15 15 14 12 11 11 12 13 13 8 3 3 3 3 3 2 2 2 2 3 5 6 6 7 7 8 8 9 10 11 11 11 11 11 11 12 12 13 14 15 16 17 17 18 20 21 22 22 24 25 26 27 27 27 27 26 29 32 32 31 32
17 17 16 15 13 12 11 11 12 13 10 4 3 4 4 4 3 2 2 1 2 4 5 5 6 6 7 7 8 9 10 10 11 11 10 10 11 11 12 13 14 15 16 16 17 18 19 20 21 22 23 24 25 26 27 29 31 30 31 32 34 35 34
18 16 15 13 12 12 11 10 12 11 5 3 5 5 4 3 3 3 2 1 2 4 4 4 5 5 6 7 7 8 9 10 10 10 10 10 10 11 11 12 13 14 15 16 17 18 18 19 19 20 22 23 24 24 25 27 31 33 34 34 34 36 37
17 15 14 13 11 11 10 10 11 8 3 5 5 5 4 4 3 2 2 1 2 3 3 3 4 5 6 6 7 8 9 9 10 9 9 9 9 10 10 11 12 13 15 16 16 17 17 18 19 19 20 21 22 23 24 27 31 33 34 36 37 37 38
15 14 13 12 11 10 10 11 10 5 4 6 6 5 4 4 3 2 2 1 1 2 2 2 3 4 5 6 8 8 8 9 9 9 9 8 8 9 9 11 12 14 15 15 16 16 17 17 18 19 19 20 20 22 25 26 31 35 34 36 39 39 39
15 14 13 11 10 10 10 10 7 4 6 7 6 5 4 3 3 2 2 2 2 2 1 2 3 4 5 7 7 8 8 8 8 9 8 8 8 8 9 11 12 14 14 15 16 16 17 18 18 18 19 20 21 22 25 28 31 37 38 37 39 40 40
15 14 13 12 11 11 11 10 6 6 7 7 6 5 4 3 3 3 3 2 2 2 1 1 2 4 5 6 7 7 8 8 8 8 7 7 7 7 9 11 12 13 14 15 16 17 18 18 19 19 19 21 22 23 25 29 31 36 40 41 41 41 41
15 15 14 13 12 12 11 8 6 7 7 6 6 5 5 4 4 4 4 3 2 2 1 1 2 3 5 5 6 7 8 7 7 7 6 6 7 8 10 11 12 14 15 16 17 18 18 19 19 20 21 22 24 25 26 28 31 35 41 43 42 42 43
16 15 14 14 13 13 11 7 8 8 7 6 6 6 6 6 5 5 4 3 2 2 1 1 2 3 4 4 6 7 7 6 5 6 6 7 8 9 10 12 13 15 17 18 18 19 19 19 20 21 22 24 25 27 28 29 31 34 39 43 43 42 44
16 15 15 15 14 12 10 8 9 9 7 7 6 7 7 7 6 5 4 3 2 1 1 0 1 2 3 4 5 6 6 5 5 6 7 8 9 10 11 13 14 16 18 19 19 19 20 21 22 22 24 26 27 28 29 30 32 34 36 41 43 44 45
16 16 16 15 13 12 10 10 10 9 8 7 7 7 8 7 7 5 4 3 2 2 1 0 1 1 2 3 5 5 5 5 5 6 7 9 10 11 12 13 15 17 19 19 19 20 21 22 23 24 25 27 28 29 31 32 34 35 36 39 42 45 46
17 17 15 14 13 12 12 11 11 10 8 8 8 8 8 7 6 5 4 3 3 2 2 1 1 1 2 3 4 4 5 6 6 6 7 9 10 11 12 14 16 17 18 18 19 21 22 23 24 25 26 28 29 31 33 34 35 36 37 40 42 45 46
17 16 15 14 14 13 12 12 11 10 9 9 8 8 8 7 6 5 5 4 4 3 2 2 1 0 1 2 3 4 5 6 7 7 8 8 9 10 12 13 15 16 17 17 18 20 21 23 24 25 26 28 30 32 33 35 36 36 38 41 43 44 45
18 17 16 15 14 14 13 13 12 10 10 9 9 8 8 6 5 5 5 5 5 4 3 3 2 0 1 2 2 3 5 6 6 7 8 8 9 10 11 13 14 16 15 15 16 17 19 21 23 25 26 28 30 32 33 34 35 37 39 41 42 44 45
19 18 17 15 15 15 14 13 12 11 10 8 8 8 7 6 6 6 5 5 5 4 4 3 2 1 0 1 1 2 4 5 6 6 7 8 8 9 11 12 14 15 14 13 15 17 19 21 23 24 25 28 30 31 33 34 35 37 38 40 41 42 44
20 19 17 16 15 15 14 14 12 11 9 8 8 8 7 6 7 6 6 6 5 5 4 4 3 2 1 1 1 2 3 4 5 5 6 7 8 9 10 11 13 13 12 13 16 17 19 22 23 23 24 26 27 28 31 33 35 36 37 38 39 40 41
21 20 17 15 14 15 14 13 12 11 9 9 8 8 7 7 7 7 7 7 6 5 5 4 4 3 2 2 1 1 3 3 4 4 5 6 7 8 9 10 11 11 11 13 16 18 20 22 23 24 24 25 25 25 26 29 32 34 35 36 38 38 39
22 20 16 14 14 15 15 13 12 11 10 9 9 8 8 8 8 8 8 7 7 6 6 5 4 4 3 2 1 2 3 3 3 4 4 5 6 7 8 10 10 9 11 13 16 18 21 23 24 24 25 25 25 25 25 26 28 30 32 33 35 36 37
23 20 17 16 17 17 15 14 13 11 10 10 9 9 9 8 8 8 8 8 7 7 6 6 5 4 3 2 1 1 2 3 3 3 3 4 5 7 8 9 9 9 12 14 16 19 22 24 26 26 26 26 26 26 27 27 28 29 30 30 32 34 35
23 20 18 18 18 17 16 15 13 11 10 10 10 9 9 8 9 9 9 9 8 7 7 6 5 4 3 1 0 1 2 3 3 3 3 4 5 6 8 8 9 10 13 15 16 19 22 25 27 28 28 28 28 28 28 29 30 31 30 30 30 32 34
22 20 20 20 20 19 17 15 13 12 12 11 11 10 10 9 9 9 9 9 8 7 7 6 5 4 3 1 0 1 2 2 2 3 3 4 4 6 7 8 8 11 13 15 16 18 22 25 27 28 29 29 29 30 29 30 31 31 30 30 30 30 32
21 21 22 22 21 19 17 15 13 12 12 12 12 11 11 11 10 10 10 10 9 8 7 6 5 3 2 1 1 1 1 2 2 3 3 3 4 5 6 7 9 11 13 15 16 19 22 25 27 28 29 30 31 31 31 32 32 31 31 31 30 30 31
21 21 23 23 21 19 18 16 13 12 12 11 11 12 11 11 12 11 11 10 9 8 7 6 5 3 2 2 0 1 1 2 2 2 3 2 3 4 5 7 9 12 14 15 16 19 22 25 27 29 30 31 32 33 34 34 35 35 34 33 32 32 32
21 21 22 23 21 19 18 16 14 13 12 11 11 12 12 12 12 12 12 10 10 8 7 5 4 3 2 1 1 1 1 1 2 2 2 2 2 3 4 6 9 11 13 15 16 19 22 25 27 28 30 31 33 34 35 35 37 37 37 37 36 35 36
21 21 22 23 21 19 18 17 15 15 14 13 12 12 12 13 12 12 11 11 10 9 7 5 4 2 2 1 2 2 1 1 2 2 2 2 3 3 4 6 8 10 13 14 16 19 22 24 27 28 29 31 32 34 35 35 36 36 37 38 38 37 38
21 22 22 22 21 20 19 18 16 15 15 15 15 14 14 14 13 13 12 12 11 10 8 6 4 3 2 2 2 2 1 2 2 3 3 3 3 3 4 6 7 10 12 14 16 19 21 24 26 27 28 29 30 32 33 34 35 35 36 37 38 39 39
22 23 22 22 22 22 20 18 17 16 15 15 16 17 16 15 15 15 14 13 12 10 8 7 5 3 3 3 3 2 1 2 2 3 3 3 3 4 5 6 8 10 12 15 17 19 21 23 25 26 27 28 29 30 31 33 34 35 36 37 39 40 41
23 23 23 22 22 22 21 19 18 18 17 17 18 18 18 17 17 17 16 14 12 10 8 7 5 4 3 3 2 2 2 1 2 2 2 3 3 4 5 6 8 10 12 15 17 19 21 23 25 26 27 27 28 30 31 32 33 35 36 37 39 41 42
23 23 23 23 23 22 21 21 20 20 19 18 18 19 20 20 19 18 16 14 12 10 8 6 5 4 4 3 2 1 2 2 2 2 2 2 3 4 5 7 8 10 12 14 16 19 21 23 24 26 27 28 28 29 31 32 34 35 36 38 40 41 42
Wind_Direction
231 233 233 232 231 238 249 258 263 267 271 273 276 285 294 301 305 308 311 315 320 326 338 348 352 355 358 359 357 357 357 359 0 3 9 13 11 12 14 14 12 10 7 3 4 3 356 349 348 352 359 8 14 10 3 2 1 358 356 356 356 356 355
227 233 237 240 240 247 255 260 265 269 273 277 284 297 309 316 318 320 320 325 333 339 349 356 0 5 4 2 360 2 4 7 13 18 21 23 25 26 23 18 14 11 8 5 4 2 360 357 353 350 352 357 6 12 10 6 4 3 1 359 358 356 355
224 228 234 241 246 254 263 268 272 275 280 288 300 313 322 326 322 318 319 329 342 349 1 6 9 9 4 3 5 9 14 18 25 29 28 28 29 28 26 21 14 12 9 3 3 6 6 4 358 354 354 354 357 4 6 4 4 4 2 0 358 355 355
228 233 238 245 252 262 271 278 281 283 290 301 313 320 324 322 315 311 317 347 18 17 15 12 12 11 8 10 13 17 22 25 28 28 25 25 24 22 20 16 13 13 11 8 10 10 6 5 2 356 355 355 356 358 359 359 359 358 358 357 355 354 354
236 243 246 252 263 273 280 286 290 294 300 307 314 320 318 311 302 293 46 57 40 21 16 15 16 15 15 18 19 23 25 24 26 25 20 18 17 14 14 14 15 14 14 16 16 12 9 9 6 360 356 356 355 356 356 356 355 354 354 355 354 353 352
236 244 251 260 270 278 283 288 293 296 299 305 314 318 309 295 252 136 96 62 30 20 22 21 20 20 21 23 23 25 25 24 26 22 16 15 13 13 15 17 17 16 16 19 17 13 12 9 4 2 2 358 355 353 353 354 353 351 351 354 355 352 352
237 248 255 261 267 274 278 281 287 291 300 309 315 310 293 235 147 124 95 58 29 25 29 27 24 26 27 26 25 24 23 24 25 20 15 15 14 16 19 17 17 17 18 19 16 12 10 8 5 4 1 356 352 350 351 354 355 354 352 353 357 355 353
241 247 249 252 260 268 272 278 286 294 306 312 308 288 229 163 140 122 99 62 38 33 36 34 31 32 31 27 24 20 20 24 22 18 16 16 16 18 19 19 18 18 19 18 15 13 12 11 9 6 1 356 353 349 349 353 358 1 356 351 355 358 355
233 237 244 252 260 265 268 277 286 297 307 308 276 215 192 165 143 122 99 73 55 44 41 38 32 32 30 24 22 18 19 23 20 17 17 15 18 20 20 20 19 19 21 19 17 16 16 14 10 6 3 2 1 357 353 353 356 0 358 352 352 357 356
228 238 248 256 261 261 266 275 284 296 303 286 189 190 189 165 145 128 111 90 65 48 40 35 29 30 28 23 23 19 20 22 18 16 17 15 19 23 23 23 21 21 23 21 20 19 18 14 9 6 5 6 9 6 358 353 352 354 355 354 350 351 353
232 241 247 253 257 260 266 272 282 292 288 193 181 186 179 162 147 132 118 84 57 49 39 32 28 28 25 22 23 22 22 21 15 14 17 17 23 27 26 27 25 25 25 23 21 18 15 11 9 9 11 11 11 9 1 350 346 349 351 350 350 348 348
237 242 246 251 255 258 263 268 279 286 233 178 179 177 170 162 150 132 117 82 56 55 44 39 36 32 27 22 23 22 21 19 14 16 22 25 30 32 29 28 27 26 27 23 19 15 12 10 10 12 14 16 12 6 1 350 342 344 347 345 346 348 346
237 242 246 250 253 252 253 262 273 267 194 179 173 166 164 157 149 137 129 118 87 81 68 56 46 36 27 21 21 21 20 19 18 24 31 34 37 35 29 27 26 27 26 20 15 13 12 12 14 14 12 13 12 2 357 351 339 338 345 346 343 346 346
234 239 242 244 247 243 248 263 265 216 182 179 169 159 156 152 155 159 159 157 133 115 95 67 48 32 22 18 21 23 23 26 27 32 38 39 40 38 29 26 25 25 22 16 14 13 15 16 16 15 11 6 7 1 353 348 340 335 341 346 344 345 346
234 237 237 236 237 238 249 263 245 190 180 179 168 160 160 164 171 172 171 175 161 150 131 62 40 26 19 16 21 29 31 33 35 37 40 38 39 38 30 26 24 22 19 15 15 16 17 17 13 11 9 2 359 358 352 347 342 335 336 343 345 344 345
233 233 230 229 231 236 248 251 213 184 179 179 177 176 178 181 182 180 178 185 183 175 163 62 35 24 20 19 24 32 36 38 37 38 39 36 38 37 30 26 23 21 19 16 17 20 18 16 12 7 4 360 354 352 351 347 342 336 334 339 344 344 343
230 228 224 222 227 234 240 225 193 183 178 181 188 192 192 189 186 184 182 187 192 184 164 57 29 23 21 22 28 32 35 38 36 35 38 37 38 36 30 26 22 18 18 18 18 19 16 13 11 5 360 357 353 350 350 347 342 339 336 337 341 343 342
224 222 219 220 225 228 223 202 187 183 180 185 194 196 194 190 186 186 186 188 193 187 167 46 15 17 21 25 29 30 34 40 37 34 37 37 35 34 29 24 19 15 16 18 17 15 13 9 6 3 358 354 352 349 347 347 346 344 340 337 339 342 342
219 219 218 218 218 211 200 190 185 184 184 190 196 195 191 190 189 188 188 188 190 193 194 232 343 6 18 24 26 29 33 41 41 36 38 37 32 30 28 22 16 14 14 15 14 11 8 5 2 0 356 352 350 348 348 349 348 345 342 340 340 341 342
215 216 213 208 203 197 191 186 184 186 189 192 193 192 191 193 192 187 186 190 194 194 206 229 264 6 17 16 20 27 34 42 44 39 37 36 29 25 25 20 14 10 10 10 10 8 5 1 359 358 354 349 348 347 349 350 348 346 344 342 342 341 341
210 209 204 198 195 193 190 187 187 189 192 192 191 189 188 191 191 187 186 189 194 199 208 225 242 332 9 9 17 28 39 47 44 38 35 31 25 20 19 17 11 6 6 8 7 5 3 359 356 354 350 347 347 348 349 349 348 347 345 343 343 342 341
204 200 198 196 195 193 189 189 191 192 191 190 187 183 184 187 184 186 189 190 194 199 204 219 231 256 353 9 28 36 45 51 42 34 33 27 19 15 13 11 7 1 2 5 2 0 2 359 354 350 348 347 348 349 349 349 348 347 344 343 343 342 342
200 198 197 197 196 193 190 190 193 194 190 185 183 180 184 186 180 181 188 191 193 196 201 212 220 229 290 20 54 49 50 52 39 26 25 20 13 10 9 6 2 358 358 358 354 354 358 357 354 351 350 351 351 350 349 349 348 347 344 343 343 344 344
199 199 198 198 195 192 190 191 193 195 187 182 181 181 182 183 181 181 184 187 191 196 199 201 204 211 205 165 99 59 50 46 36 19 10 10 7 3 2 359 357 355 354 350 347 349 351 352 353 354 356 357 356 354 351 349 347 346 344 343 344 346 345
202 200 197 197 196 195 194 193 195 194 187 184 185 184 183 182 180 180 181 184 190 192 195 195 193 199 198 179 134 61 46 34 25 11 359 357 357 355 353 353 354 352 348 345 343 344 346 348 352 355 358 0 0 358 355 351 348 346 345 344 345 347 346
205 200 198 201 203 201 198 197 196 194 190 189 187 185 185 182 179 181 181 182 186 186 187 189 189 193 197 187 130 57 43 30 15 359 348 344 345 345 344 347 350 347 341 343 344 342 343 347 351 354 357 0 1 359 358 356 352 349 347 346 346 347 347
202 199 201 206 206 202 199 198 196 195 193 190 187 187 187 182 179 181 181 179 181 182 183 187 189 191 195 185 118 49 39 33 16 352 337 334 336 337 339 343 345 340 340 346 345 339 340 347 350 352 354 357 358 358 358 358 356 354 351 350 348 347 347
199 201 205 207 203 200 201 199 197 194 188 184 184 184 184 183 180 181 181 177 175 178 183 186 188 190 190 187 146 23 23 22 13 352 337 333 333 334 336 339 338 335 342 348 342 335 340 347 349 349 351 354 355 356 357 358 358 356 354 353 352 349 347
200 204 207 204 200 200 201 199 198 192 184 181 182 180 178 180 181 182 180 175 172 177 184 184 185 189 189 187 252 346 1 2 0 355 347 338 333 332 333 335 333 335 342 343 338 336 341 346 347 348 350 351 352 353 354 356 358 357 354 354 354 352 349
203 206 207 203 199 199 199 197 197 193 187 183 180 177 177 177 178 181 181 176 173 178 182 180 181 187 189 189 234 329 342 351 2 2 353 343 334 331 331 330 331 334 338 337 336 338 342 345 346 348 349 350 350 350 352 354 354 355 354 355 355 353 352
208 207 206 203 200 199 198 196 195 192 189 185 178 175 177 179 179 180 180 177 175 175 179 179 179 186 190 191 188 22 4 3 12 8 359 350 336 332 331 329 328 331 333 335 336 340 343 346 347 349 349 349 349 349 351 351 350 351 353 354 355 355 355
210 206 205 204 202 201 199 197 196 192 187 184 180 177 179 183 184 181 177 175 172 171 173 173 174 183 185 165 94 77 63 36 32 19 10 4 348 339 333 327 327 330 335 337 339 343 348 349 349 350 349 348 348 349 350 349 348 349 351 353 355 357 357
210 206 206 205 203 201 201 199 198 195 189 184 184 184 182 182 185 184 179 174 169 166 165 162 164 173 165 127 103 98 92 65 50 35 23 12 355 344 332 326 328 336 342 344 347 351 354 353 352 352 350 348 348 348 348 347 347 347 349 351 354 357 358
209 207 207 205 203 202 203 203 202 199 194 188 187 188 187 186 189 189 183 176 171 166 161 157 157 157 134 109 99 97 87 64 50 34 17 7 354 342 335 335 342 350 353 355 357 359 360 358 356 354 352 350 348 346 346 345 345 346 348 351 354 357 359
207 208 207 205 204 204 203 205 207 205 200 193 189 190 192 193 191 187 182 179 176 172 167 162 156 142 112 96 91 82 61 48 44 25 4 355 346 340 343 347 354 359 0 2 4 4 3 1 358 356 354 352 349 347 346 345 345 347 349 352 354 358 0
208 208 205 204 205 206 204 204 207 208 205 198 193 192 194 194 191 187 184 183 181 178 174 168 157 134 105 89 84 69 39 23 20 6 342 330 331 338 346 348 352 358 2 4 6 5 4 2 359 357 356 353 351 349 347 346 347 349 351 353 355 358 1
210 208 205 204 206 207 207 206 206 208 208 202 198 195 194 194 193 190 187 186 184 182 178 173 162 137 109 90 79 59 25 4 353 332 307 307 323 336 343 345 347 353 360 4 5 5 4 3 0 358 357 354 352 351 350 349 350 351 352 354 356 357 360